Flag for U.S.A. Weather past 2 weeks in Panama City, Florida, U.S.A.

Now
78 °F

Mostly cloudy.


Feels Like: 80 °F
Forecast: 67 / 77 °F
Wind: 3 mph from North

Location: Tyndall Air Force Base

Current Time: Apr 28, 2015 at 3:44:11 PM

Latest Report: Apr 28, 2015 at 2:58 PM


Visibility: 10 mi

Pressure: 29.77 "Hg

Humidity: 70%

Dew point: 67 °F

Location of Panama CityLocation

Historic Weather in Panama City — Graph

°F

Panama City temperature yesterday

Maximum temperature yesterday: 75 °F (at 6:53 AM)
Minimum temperature yesterday: 66 °F (at 9:03 PM)
Average temperature yesterday: 71 °F

Past Weeks' High & Low Weather Summary

 TemperatureHumidityPressure
High83 °F (Apr 22, 12:58 PM)100% (Apr 13, 4:03 PM)30.13 "Hg (Apr 13, 4:03 PM)
Low59 °F (Apr 22, 5:58 AM)36% (Apr 21, 2:58 PM)29.70 "Hg (Apr 28, 4:03 AM)
Average73 °F86%29.94 "Hg
* Reported Apr 13 1:58 PM — Apr 28 1:59 PM, Panama City, Weather by CustomWeather, © 2015

Note: Actual official high and low records may vary slightly from our data, if they occured in-between our weather recording intervals... More about our weather records

Advertising

Panama City weather history for previous 24 hours

 ConditionsComfort  
Time TempWeatherWind HumidityBarometerVisibility
1:59 PM
Tue, Apr 28
77 °FCloudy.2 mph69%29.80 "Hg10 mi
12:59 PM77 °FBroken clouds.1 mph74%29.81 "Hg10 mi
11:58 AM74 °FCloudy.3 mph81%29.81 "Hg10 mi
10:58 AM72 °FBroken clouds.9 mph86%29.81 "Hg10 mi
9:58 AM71 °FMostly cloudy.5 mph88%29.81 "Hg10 mi
8:58 AM69 °FBroken clouds.6 mph91%29.79 "Hg10 mi
7:58 AM68 °FMostly cloudy.6 mph93%29.79 "Hg10 mi
7:03 AM68 °FBroken clouds.7 mph94%29.78 "Hg10 mi
6:58 AM68 °FPartly sunny.8 mph94%29.79 "Hg10 mi
5:58 AM70 °FPassing clouds.15 mph93%29.75 "Hg10 mi
4:58 AM68 °FPartly cloudy.1 mph93%29.81 "Hg10 mi
4:03 AM66 °FClear.24 mph94%29.70 "Hg10 mi
3:03 AM66 °FPassing clouds.6 mph94%29.80 "Hg10 mi
1:58 AM67 °FLight rain. Mostly cloudy.6 mph98%29.82 "Hg10 mi
1:03 AM68 °FLight rain. Mostly cloudy.3 mph94%29.80 "Hg10 mi
12:58 AM67 °FLight rain. Partly cloudy.5 mph97%29.82 "Hg10 mi
11:58 PM
Mon, Apr 27
68 °FLight rain. Low clouds.7 mph96%29.81 "Hg10 mi
10:58 PM67 °FLight rain. Low clouds.6 mph96%29.80 "Hg10 mi
9:58 PM67 °FDrizzle. Low clouds.7 mph96%29.80 "Hg10 mi
9:03 PM66 °FDrizzle. Low clouds.6 mph100%29.78 "Hg10 mi
8:58 PM67 °FDrizzle. Low clouds.7 mph96%29.79 "Hg10 mi
7:58 PM68 °FPassing clouds.5 mph94%29.79 "Hg10 mi
6:58 PM68 °FPassing clouds.7 mph94%29.76 "Hg10 mi
6:03 PM68 °FLight rain. Broken clouds.13 mph94%29.78 "Hg10 mi
5:58 PM68 °FDrizzle. Broken clouds.6 mph94%29.82 "Hg10 mi
4:57 PM67 °FLight rain. Broken clouds.9 mph94%29.81 "Hg5 mi
3:58 PM69 °FLight rain. Mostly cloudy.8 mph93%29.87 "Hg5 mi
Weather by CustomWeather, © 2015

See weather overviewHow to use our weather pages